Lid_Strength_Index
2 3 3 3 3 4 3 3 4 4 4 4 4 4 4 4 4 4 4 3 3 3 2 2 2 1 1 4 4 1 1 -0 -0 0 2 3 4 5 7 5 5 6 5 4 4 4 5
1 2 2 2 3 3 3 3 3 4 4 4 4 4 4 4 4 4 4 3 3 3 2 2 1 1 2 6 1 1 1 1 1 1 2 2 3 3 5 6 6 5 5 5 4 4 5
1 1 1 2 2 2 3 3 3 4 4 4 4 4 4 4 4 4 4 3 3 2 2 2 1 1 3 5 1 0 1 1 1 2 2 1 2 4 4 6 4 5 6 5 5 5 5
1 1 1 2 2 2 2 2 3 3 4 4 4 4 4 4 4 4 3 3 3 2 2 2 1 1 4 1 0 1 1 2 1 1 2 1 1 3 4 3 5 6 6 9 6 5 5
1 1 1 1 2 2 2 2 2 3 3 4 4 5 5 4 4 4 3 3 2 2 2 1 1 2 5 2 3 2 1 3 3 2 2 1 2 4 4 7 8 7 10 9 8 5 6
1 1 1 1 1 2 2 2 2 2 3 3 4 5 5 4 4 4 3 3 2 2 1 0 1 4 3 4 2 2 1 2 3 3 3 4 4 6 6 8 12 10 9 9 9 6 6
1 1 1 1 1 2 2 2 2 2 3 3 4 5 4 4 4 4 3 2 3 4 2 4 4 4 3 2 1 3 2 3 3 4 7 5 8 10 8 8 7 8 9 9 7 6 7
1 1 1 1 2 2 2 2 3 2 3 3 4 4 4 4 4 4 2 3 3 2 6 3 3 3 2 2 5 3 2 5 5 7 6 7 9 7 6 7 8 8 9 9 7 6 7
1 1 1 2 2 2 2 3 3 3 3 4 5 5 4 4 4 3 2 3 1 1 6 4 3 4 3 2 5 5 3 4 6 7 7 9 7 6 8 9 9 8 10 9 9 7 6
1 1 2 2 2 2 2 3 3 3 3 4 5 5 4 4 5 2 3 1 0 1 9 8 6 4 3 3 6 2 2 4 6 8 7 8 6 7 8 9 8 10 7 8 8 9 11
1 2 2 2 2 3 3 3 3 3 3 4 5 5 4 6 1 3 2 1 0 1 16 6 6 2 3 6 5 5 2 4 7 7 7 8 8 8 8 8 7 8 7 8 8 9 9
1 2 2 2 2 3 3 3 3 3 4 4 5 5 4 3 1 2 1 1 1 10 14 8 5 6 6 6 6 5 5 3 4 7 7 7 5 6 7 6 6 7 7 8 8 9 13
2 2 2 2 2 3 3 3 3 3 4 5 5 5 4 2 4 1 1 2 10 12 7 8 8 6 7 8 7 7 8 9 10 13 11 9 8 6 5 8 6 7 9 13 14 13 14
2 2 2 2 2 3 3 3 3 4 5 5 6 6 3 2 2 1 2 6 12 9 9 6 7 7 9 8 8 8 9 11 8 8 10 12 13 8 6 8 9 8 9 13 18 15 13
2 2 2 2 2 3 3 3 3 4 5 6 7 1 1 2 2 1 4 10 10 9 8 8 7 9 9 9 9 9 9 10 9 8 12 12 12 7 6 6 7 9 10 8 13 10 12
2 2 2 2 2 3 3 3 3 4 5 7 4 2 3 2 1 2 6 12 8 7 7 7 10 9 12 10 10 10 10 8 9 7 6 9 12 8 7 6 6 7 7 11 11 15 15
2 2 2 2 2 2 3 3 3 4 5 6 3 5 3 1 1 4 8 9 8 6 6 7 9 10 9 11 10 11 12 9 8 8 6 8 10 10 7 9 9 8 9 9 9 10 14
2 2 2 2 2 2 3 3 3 4 5 5 4 7 2 2 6 6 8 8 8 6 5 6 6 7 9 9 11 13 13 11 7 8 11 8 10 13 11 7 6 7 8 8 12 12 11
2 2 2 2 2 2 3 3 4 4 5 5 6 6 2 2 9 8 6 7 7 7 7 7 7 6 6 9 13 12 11 8 7 9 11 8 11 15 13 10 8 9 8 8 8 9 11
2 2 2 2 2 3 3 4 4 4 5 5 6 8 6 5 5 7 7 7 8 6 6 6 7 6 8 9 9 12 11 9 7 8 7 8 10 12 15 13 10 12 10 8 9 12 11
2 2 2 3 3 3 4 4 4 4 5 5 6 8 6 9 7 7 6 7 8 8 6 6 7 7 8 12 11 12 10 10 9 7 8 10 14 11 10 10 10 12 12 10 10 9 11
2 3 3 3 3 3 4 4 4 5 6 4 7 8 7 7 6 7 8 7 8 7 7 7 7 7 7 10 9 11 11 11 11 8 10 9 14 11 13 10 10 13 12 11 9 9 9
3 3 3 3 3 3 3 4 4 5 5 5 5 5 6 7 7 8 8 7 7 6 6 6 6 7 8 7 6 6 7 7 8 9 11 11 13 15 16 13 13 16 12 10 9 8 8
3 3 2 3 2 3 3 4 4 5 6 4 4 6 7 9 8 8 8 7 7 6 7 6 5 6 5 3 4 5 6 7 8 7 7 11 12 14 17 15 21 12 8 7 8 7 6
3 2 2 2 2 3 4 4 4 4 5 4 4 6 7 10 8 8 8 7 6 5 5 6 4 3 3 5 9 11 11 10 9 8 8 8 12 15 18 18 14 12 10 9 9 8 6
3 3 3 2 2 2 3 4 4 3 5 4 4 4 6 9 8 7 7 6 7 7 6 5 3 2 3 7 9 14 15 13 13 10 7 9 10 14 16 19 20 14 10 7 7 12 6
3 3 2 2 2 2 3 4 4 4 4 4 4 4 7 9 7 6 8 8 5 6 7 5 5 5 3 7 11 13 13 10 14 15 13 12 12 16 16 18 15 10 9 6 15 13 8
3 3 2 2 2 2 3 3 4 4 3 3 3 4 7 9 7 6 5 6 6 5 8 5 6 5 6 9 10 11 13 11 13 10 13 14 15 16 15 17 18 8 9 13 10 8 7
2 2 2 2 2 2 3 3 3 3 3 4 5 3 4 9 9 5 5 4 4 4 4 4 5 6 6 8 8 8 11 11 11 16 9 14 12 14 13 14 9 9 9 7 7 8 7